GFSMW_prec_precacc_132.txt.gz
Total_Precipitation_Accumulation
0.02 0.03 0.02 0.02 0.01 0.06 0.04 0.10 0.27 0.28 0.44 0.41 0.29 0.36 0.36 0.57 0.42 0.45 0.54 0.95 1.17 1.89 1.04 0.56 0.32 0.43 0.50 0.61 1.05 1.50 1.44 1.51 1.84 2.51 2.43 1.86 1.70 2.06 2.41 2.97 2.94 3.29 2.90
0.01 0.01 0.00 0.00 0.01 0.05 0.04 0.02 0.04 0.13 0.21 0.26 0.29 0.18 0.23 0.33 0.51 0.56 0.65 0.72 0.83 1.21 1.45 0.85 0.61 0.43 0.52 0.58 0.72 1.10 1.21 1.24 1.37 1.64 1.67 1.71 1.35 1.06 0.86 0.88 0.90 0.80 0.83
0.00 0.00 0.00 0.00 0.01 0.01 0.01 0.02 0.03 0.06 0.08 0.16 0.28 0.25 0.37 0.40 0.61 0.73 0.88 0.67 0.72 0.98 1.17 1.05 0.91 0.85 1.18 1.22 1.24 1.46 1.49 1.31 1.29 1.19 1.41 1.18 1.00 0.92 0.95 0.92 0.73 0.70 0.61
0.01 0.00 0.01 0.01 0.03 0.04 0.04 0.06 0.06 0.06 0.04 0.06 0.10 0.09 0.15 0.13 0.15 0.18 0.47 0.75 0.81 1.21 1.50 1.15 1.08 0.87 0.81 0.97 0.99 1.12 1.31 1.48 1.53 1.55 1.66 1.34 1.14 0.94 0.81 0.80 0.84 0.60 0.41
0.08 0.05 0.04 0.04 0.04 0.05 0.05 0.05 0.11 0.13 0.08 0.10 0.08 0.10 0.11 0.14 0.14 0.09 0.13 0.42 0.70 0.60 1.16 1.33 1.29 1.07 0.91 0.80 0.83 0.71 0.69 0.60 0.77 0.54 0.46 0.58 0.51 0.50 0.59 0.52 0.40 0.39 0.23
0.12 0.13 0.16 0.09 0.08 0.15 0.09 0.06 0.09 0.11 0.15 0.16 0.18 0.14 0.16 0.16 0.12 0.09 0.12 0.20 0.42 0.86 1.03 1.31 1.12 1.20 1.15 1.11 1.31 1.38 1.06 0.78 0.65 0.71 0.43 0.39 0.37 0.30 0.37 0.39 0.33 0.38 0.30
0.23 0.16 0.12 0.10 0.10 0.21 0.32 0.24 0.25 0.24 0.18 0.14 0.15 0.19 0.20 0.18 0.18 0.19 0.29 0.39 0.50 0.83 1.01 1.26 1.22 1.12 1.23 1.14 1.16 1.39 1.61 1.57 1.08 0.93 0.81 0.64 0.47 0.42 0.48 0.64 0.54 0.44 0.32
0.49 0.34 0.24 0.20 0.15 0.11 0.18 0.31 0.49 0.53 0.48 0.40 0.36 0.39 0.42 0.41 0.41 0.46 0.65 0.64 0.47 0.46 0.88 1.36 1.51 1.27 1.28 1.36 1.38 1.48 1.49 1.80 1.86 1.23 0.96 0.73 0.61 0.62 0.58 0.65 0.83 0.72 0.48
0.57 0.50 0.38 0.27 0.22 0.18 0.35 0.41 0.37 0.31 0.46 0.61 0.52 0.55 0.61 0.68 0.82 0.80 0.83 0.79 0.56 0.39 0.47 0.59 1.00 1.16 1.28 1.54 1.76 1.59 1.37 1.39 1.52 1.29 0.99 0.83 0.58 0.64 0.64 0.58 0.60 0.66 0.61
0.44 0.32 0.25 0.27 0.30 0.62 0.97 1.06 0.91 0.74 0.71 0.79 0.73 0.78 0.86 0.87 0.90 0.78 0.94 0.83 0.78 0.74 0.80 0.72 0.95 1.23 1.53 1.57 1.58 1.34 1.19 1.27 1.35 1.56 1.48 1.07 0.68 0.64 0.76 0.74 0.73 0.75 0.73
0.13 0.14 0.19 0.26 0.44 0.57 0.84 1.07 1.28 1.65 1.41 1.37 1.42 1.19 1.00 1.13 1.14 1.10 1.10 1.13 1.04 1.06 1.02 1.03 1.03 0.84 0.98 1.32 1.60 1.65 1.56 1.64 1.67 1.74 1.50 1.13 1.03 1.04 1.03 1.05 1.02 0.91 0.91
0.08 0.07 0.07 0.10 0.32 0.55 0.70 0.82 1.13 1.80 1.70 1.32 1.55 1.67 1.40 1.71 2.06 2.10 1.80 1.93 1.88 1.64 1.50 1.19 1.00 0.80 0.67 0.83 1.43 1.74 1.61 1.40 1.63 1.93 1.90 1.55 1.36 1.30 1.22 1.14 1.01 0.82 0.78
0.06 0.07 0.09 0.12 0.20 0.37 0.58 0.75 1.07 1.58 1.75 1.93 1.82 1.65 1.39 1.76 1.58 1.21 0.99 0.86 0.82 0.79 0.83 0.83 0.82 0.84 0.61 0.53 0.72 1.17 1.69 1.56 1.37 1.56 1.86 1.61 1.38 1.21 1.15 1.08 0.89 0.76 0.73
0.14 0.15 0.16 0.19 0.25 0.42 0.58 0.74 1.26 1.48 1.40 1.70 1.73 1.52 1.37 1.28 1.03 0.88 0.78 0.65 0.57 0.36 0.43 0.63 0.78 0.99 0.93 0.95 0.92 0.97 1.06 1.46 1.43 1.32 1.32 1.50 1.44 1.06 0.90 0.89 0.93 0.98 0.91
0.12 0.20 0.21 0.22 0.23 0.31 0.36 0.45 0.58 1.06 1.20 1.46 1.91 1.81 1.56 1.43 1.52 1.54 1.41 0.88 0.76 0.66 0.52 0.48 0.45 0.79 1.15 0.84 0.77 0.72 1.01 1.20 1.40 1.41 1.43 1.20 1.48 1.44 1.23 1.10 0.89 0.91 1.02
0.16 0.16 0.16 0.17 0.19 0.20 0.19 0.26 0.36 0.43 0.61 0.70 1.16 1.60 1.97 1.29 1.34 1.61 1.81 1.36 0.94 1.02 0.78 0.85 0.68 0.62 0.86 1.28 0.93 0.79 0.61 0.82 1.03 1.09 1.08 1.48 1.70 1.24 1.26 1.35 1.38 1.31 1.18
0.20 0.18 0.20 0.19 0.22 0.23 0.21 0.27 0.34 0.32 0.42 0.58 0.97 1.11 1.39 1.81 1.40 1.57 1.68 1.93 1.59 1.26 1.24 1.00 0.98 0.91 0.87 1.41 0.97 1.07 0.96 0.85 0.71 0.85 0.96 0.90 1.58 1.91 1.33 1.46 1.55 1.71 1.90
0.67 0.35 0.28 0.26 0.25 0.27 0.28 0.29 0.32 0.35 0.40 0.53 0.71 0.86 0.81 1.32 1.68 1.34 1.29 1.36 1.52 1.62 1.52 1.21 1.00 0.77 0.81 1.03 1.30 1.43 1.08 0.99 0.80 0.73 0.81 0.90 0.99 1.65 1.71 1.38 1.56 1.69 1.99
0.84 1.08 0.60 0.41 0.45 0.38 0.35 0.36 0.37 0.41 0.39 0.61 0.80 0.99 1.10 1.13 1.22 1.48 1.35 1.45 1.35 1.33 1.45 1.29 0.95 0.85 0.87 1.30 1.24 1.25 0.92 1.10 1.06 0.94 1.03 1.02 0.86 1.47 1.71 1.35 1.50 1.60 1.87
0.67 0.66 0.94 0.88 0.73 0.78 0.56 0.43 0.42 0.37 0.46 0.53 0.66 0.80 0.97 1.16 1.39 1.71 1.85 1.75 1.60 1.38 1.22 1.20 1.18 1.38 1.09 1.48 1.36 1.34 0.94 0.86 1.02 1.01 1.15 1.77 1.29 1.34 1.14 1.00 1.01 1.47 1.89
0.54 0.58 0.53 0.73 0.94 0.88 0.91 0.76 0.55 0.51 0.55 0.59 0.61 0.68 0.80 1.03 1.20 1.24 1.40 1.66 1.85 1.80 1.51 1.39 1.31 1.24 1.42 1.57 1.74 1.56 1.24 1.25 1.11 1.16 1.27 1.46 1.91 1.47 1.55 1.57 1.40 2.24 2.29
0.45 0.38 0.42 0.41 0.33 0.26 0.33 0.65 0.84 0.85 0.73 0.68 0.66 0.79 0.84 0.92 1.02 1.06 1.08 1.08 1.22 1.52 1.76 1.63 1.62 1.65 1.71 1.90 1.82 1.72 1.68 1.68 1.36 1.60 1.45 1.80 1.81 1.36 1.47 1.69 2.16 2.23 1.89
0.29 0.16 0.14 0.08 0.05 0.07 0.09 0.16 0.31 0.51 0.62 0.70 0.80 0.77 0.71 0.65 0.60 0.64 0.80 0.93 0.97 0.94 1.00 1.13 1.33 1.50 1.59 1.76 1.93 1.86 1.86 1.88 1.74 2.07 2.37 2.26 1.77 1.52 1.64 1.87 1.89 1.81 1.77
0.20 0.07 0.02 0.01 0.06 0.10 0.12 0.13 0.12 0.11 0.14 0.17 0.25 0.28 0.32 0.37 0.34 0.40 0.46 0.48 0.58 0.70 0.85 0.95 1.02 1.08 1.10 1.15 1.21 1.25 1.34 1.52 1.66 1.98 2.07 2.00 1.89 1.85 1.96 1.94 1.87 1.85 1.96
0.39 0.16 0.12 0.15 0.17 0.12 0.12 0.14 0.14 0.12 0.15 0.14 0.17 0.18 0.20 0.25 0.27 0.34 0.44 0.42 0.59 0.62 0.67 0.84 0.89 0.94 1.16 1.52 1.49 1.45 1.52 1.62 1.81 1.90 2.04 2.07 2.05 2.03 2.04 1.97 1.92 1.88 1.79
0.45 0.36 0.32 0.27 0.22 0.19 0.24 0.24 0.21 0.18 0.18 0.17 0.19 0.24 0.18 0.19 0.22 0.22 0.35 0.56 0.63 0.59 0.65 0.75 0.78 1.10 1.32 1.41 1.37 1.36 1.39 1.41 1.41 1.36 1.43 1.39 1.32 1.25 1.17 1.12 1.08 1.02 1.02

GFSMW_prec_precacc_135.txt.gz
Total_Precipitation_Accumulation
0.02 0.03 0.02 0.02 0.01 0.06 0.04 0.10 0.27 0.28 0.44 0.41 0.29 0.36 0.36 0.57 0.42 0.45 0.54 0.95 1.17 1.89 1.04 0.56 0.32 0.43 0.50 0.61 1.05 1.50 1.44 1.51 1.84 2.51 2.43 1.86 1.70 2.06 2.41 2.97 2.95 3.36 3.32
0.01 0.01 0.00 0.00 0.01 0.05 0.04 0.02 0.04 0.13 0.21 0.26 0.29 0.18 0.23 0.33 0.51 0.56 0.65 0.72 0.83 1.21 1.45 0.85 0.61 0.43 0.52 0.58 0.72 1.10 1.21 1.24 1.37 1.64 1.67 1.71 1.35 1.06 0.86 0.88 0.90 0.80 0.83
0.00 0.00 0.00 0.00 0.01 0.01 0.01 0.02 0.03 0.06 0.08 0.16 0.28 0.25 0.37 0.40 0.61 0.73 0.88 0.67 0.72 0.98 1.17 1.05 0.91 0.85 1.18 1.22 1.24 1.46 1.49 1.31 1.29 1.19 1.41 1.18 1.00 0.92 0.95 0.92 0.73 0.70 0.61
0.01 0.00 0.01 0.01 0.03 0.04 0.04 0.06 0.06 0.06 0.04 0.06 0.10 0.09 0.15 0.13 0.15 0.18 0.47 0.75 0.81 1.21 1.50 1.15 1.08 0.87 0.81 0.97 0.99 1.12 1.31 1.48 1.53 1.55 1.66 1.34 1.14 0.94 0.81 0.80 0.84 0.60 0.42
0.08 0.05 0.04 0.04 0.04 0.05 0.05 0.05 0.11 0.13 0.08 0.10 0.08 0.10 0.11 0.14 0.14 0.09 0.13 0.42 0.70 0.60 1.16 1.33 1.29 1.07 0.91 0.80 0.83 0.71 0.69 0.60 0.77 0.54 0.46 0.59 0.51 0.50 0.60 0.52 0.40 0.39 0.23
0.12 0.13 0.16 0.09 0.08 0.15 0.09 0.06 0.09 0.11 0.15 0.16 0.18 0.14 0.16 0.16 0.12 0.09 0.12 0.20 0.42 0.86 1.03 1.31 1.12 1.20 1.15 1.11 1.31 1.38 1.06 0.78 0.65 0.71 0.44 0.40 0.39 0.31 0.38 0.39 0.33 0.38 0.30
0.23 0.16 0.12 0.10 0.10 0.21 0.32 0.24 0.25 0.24 0.18 0.14 0.15 0.19 0.20 0.18 0.18 0.19 0.29 0.39 0.50 0.83 1.01 1.26 1.22 1.12 1.23 1.14 1.16 1.39 1.61 1.57 1.08 0.93 0.81 0.65 0.48 0.43 0.50 0.64 0.54 0.44 0.32
0.49 0.34 0.24 0.20 0.15 0.11 0.18 0.31 0.49 0.53 0.48 0.40 0.36 0.39 0.42 0.41 0.41 0.46 0.65 0.64 0.47 0.46 0.88 1.36 1.51 1.27 1.28 1.36 1.38 1.48 1.49 1.80 1.86 1.23 0.96 0.73 0.61 0.63 0.59 0.66 0.84 0.72 0.48
0.57 0.50 0.38 0.27 0.22 0.18 0.35 0.41 0.37 0.31 0.46 0.61 0.52 0.55 0.61 0.68 0.82 0.80 0.83 0.79 0.56 0.39 0.47 0.59 1.00 1.16 1.28 1.54 1.76 1.59 1.37 1.39 1.52 1.29 0.99 0.83 0.58 0.64 0.64 0.59 0.61 0.66 0.61
0.44 0.32 0.25 0.27 0.30 0.62 0.97 1.06 0.91 0.74 0.71 0.79 0.73 0.78 0.86 0.87 0.90 0.78 0.94 0.83 0.78 0.74 0.80 0.72 0.95 1.23 1.53 1.57 1.58 1.34 1.19 1.27 1.35 1.56 1.48 1.07 0.68 0.64 0.76 0.75 0.74 0.77 0.74
0.13 0.14 0.19 0.26 0.44 0.57 0.84 1.07 1.28 1.65 1.41 1.37 1.42 1.19 1.00 1.13 1.14 1.10 1.10 1.13 1.04 1.06 1.02 1.03 1.03 0.84 0.98 1.32 1.61 1.65 1.57 1.64 1.67 1.74 1.50 1.13 1.03 1.05 1.03 1.06 1.03 0.92 0.92
0.08 0.07 0.07 0.10 0.32 0.55 0.70 0.82 1.13 1.80 1.70 1.32 1.55 1.67 1.40 1.71 2.06 2.10 1.80 1.93 1.88 1.64 1.50 1.19 1.00 0.80 0.67 0.83 1.43 1.74 1.61 1.40 1.63 1.93 1.90 1.55 1.36 1.30 1.23 1.15 1.02 0.84 0.80
0.06 0.07 0.09 0.12 0.20 0.37 0.58 0.75 1.07 1.58 1.75 1.93 1.82 1.65 1.39 1.76 1.58 1.21 0.99 0.86 0.82 0.79 0.83 0.83 0.82 0.84 0.61 0.53 0.72 1.17 1.69 1.56 1.37 1.56 1.86 1.61 1.38 1.21 1.16 1.09 0.89 0.77 0.74
0.14 0.15 0.16 0.19 0.25 0.42 0.58 0.74 1.26 1.48 1.40 1.70 1.73 1.52 1.37 1.28 1.03 0.88 0.78 0.65 0.57 0.36 0.43 0.63 0.78 0.99 0.93 0.95 0.92 0.97 1.06 1.46 1.43 1.32 1.32 1.50 1.44 1.06 0.91 0.90 0.94 0.98 0.91
0.12 0.20 0.21 0.22 0.23 0.31 0.36 0.45 0.58 1.06 1.20 1.46 1.91 1.81 1.56 1.43 1.52 1.54 1.41 0.88 0.76 0.66 0.52 0.48 0.45 0.79 1.15 0.84 0.77 0.72 1.01 1.20 1.40 1.41 1.43 1.20 1.48 1.44 1.23 1.11 0.90 0.91 1.03
0.16 0.16 0.16 0.17 0.19 0.20 0.19 0.26 0.36 0.43 0.61 0.70 1.16 1.60 1.97 1.29 1.34 1.61 1.81 1.36 0.94 1.02 0.78 0.85 0.68 0.62 0.86 1.28 0.93 0.79 0.61 0.82 1.03 1.09 1.08 1.48 1.70 1.24 1.26 1.35 1.39 1.32 1.20
0.20 0.18 0.20 0.19 0.22 0.23 0.21 0.27 0.34 0.32 0.42 0.58 0.97 1.11 1.39 1.81 1.40 1.57 1.68 1.93 1.59 1.26 1.24 1.00 0.98 0.91 0.87 1.41 0.98 1.07 0.96 0.85 0.71 0.85 0.96 0.90 1.58 1.91 1.33 1.46 1.55 1.71 1.90
0.68 0.35 0.28 0.26 0.25 0.27 0.28 0.29 0.32 0.35 0.40 0.53 0.71 0.86 0.81 1.32 1.68 1.34 1.29 1.36 1.52 1.62 1.52 1.21 1.00 0.77 0.81 1.03 1.30 1.43 1.08 0.99 0.80 0.73 0.81 0.90 0.99 1.65 1.71 1.38 1.56 1.69 1.99
0.85 1.08 0.60 0.41 0.45 0.38 0.35 0.36 0.37 0.41 0.39 0.61 0.80 0.99 1.10 1.13 1.22 1.48 1.35 1.45 1.35 1.33 1.45 1.29 0.95 0.85 0.87 1.30 1.24 1.25 0.92 1.10 1.06 0.94 1.03 1.02 0.86 1.47 1.71 1.35 1.50 1.60 1.87
0.67 0.66 0.94 0.88 0.73 0.79 0.57 0.44 0.42 0.37 0.46 0.53 0.66 0.80 0.97 1.16 1.39 1.71 1.85 1.75 1.60 1.38 1.22 1.20 1.18 1.38 1.09 1.48 1.36 1.34 0.94 0.86 1.02 1.01 1.15 1.77 1.29 1.34 1.14 1.00 1.01 1.47 1.89
0.54 0.58 0.53 0.73 0.94 0.89 0.92 0.76 0.55 0.51 0.55 0.59 0.61 0.68 0.80 1.03 1.20 1.24 1.40 1.66 1.85 1.80 1.51 1.39 1.31 1.24 1.42 1.57 1.74 1.56 1.24 1.25 1.11 1.16 1.27 1.46 1.91 1.47 1.55 1.57 1.40 2.24 2.29
0.45 0.38 0.42 0.42 0.35 0.27 0.33 0.65 0.84 0.85 0.73 0.68 0.66 0.79 0.84 0.92 1.02 1.06 1.08 1.08 1.22 1.52 1.76 1.63 1.62 1.65 1.71 1.90 1.82 1.72 1.68 1.68 1.36 1.60 1.45 1.80 1.81 1.36 1.47 1.69 2.16 2.23 1.89
0.29 0.16 0.15 0.10 0.07 0.07 0.09 0.16 0.31 0.51 0.62 0.70 0.80 0.77 0.71 0.65 0.60 0.64 0.80 0.93 0.97 0.94 1.00 1.13 1.33 1.50 1.59 1.76 1.93 1.86 1.86 1.88 1.74 2.07 2.37 2.26 1.77 1.52 1.64 1.87 1.89 1.81 1.77
0.20 0.07 0.03 0.02 0.06 0.10 0.12 0.13 0.12 0.11 0.14 0.17 0.25 0.28 0.32 0.37 0.34 0.40 0.46 0.48 0.58 0.70 0.85 0.95 1.02 1.08 1.10 1.15 1.21 1.25 1.34 1.52 1.66 1.98 2.07 2.00 1.89 1.85 1.96 1.94 1.87 1.85 1.96
0.39 0.16 0.12 0.15 0.17 0.12 0.12 0.14 0.14 0.12 0.15 0.14 0.17 0.18 0.20 0.25 0.27 0.34 0.44 0.42 0.59 0.62 0.67 0.84 0.89 0.94 1.16 1.52 1.49 1.45 1.52 1.62 1.81 1.90 2.04 2.07 2.05 2.03 2.04 1.97 1.92 1.88 1.79
0.45 0.36 0.32 0.27 0.22 0.19 0.24 0.24 0.21 0.18 0.18 0.17 0.19 0.24 0.18 0.19 0.22 0.22 0.35 0.56 0.63 0.59 0.65 0.75 0.78 1.10 1.32 1.41 1.37 1.36 1.39 1.41 1.41 1.36 1.43 1.39 1.32 1.25 1.17 1.12 1.08 1.02 1.02

GFSMW_prec_precacc_138.txt.gz
Total_Precipitation_Accumulation
0.02 0.03 0.02 0.02 0.01 0.06 0.04 0.10 0.27 0.28 0.44 0.41 0.29 0.36 0.36 0.57 0.42 0.45 0.54 0.95 1.17 1.89 1.04 0.56 0.32 0.43 0.50 0.61 1.05 1.50 1.44 1.51 1.84 2.51 2.43 1.86 1.70 2.06 2.41 2.97 2.95 3.36 3.32
0.01 0.01 0.00 0.00 0.01 0.05 0.04 0.02 0.04 0.13 0.21 0.26 0.29 0.18 0.23 0.33 0.51 0.56 0.65 0.72 0.83 1.21 1.45 0.85 0.61 0.43 0.52 0.58 0.72 1.10 1.21 1.24 1.37 1.64 1.67 1.71 1.35 1.06 0.86 0.88 0.90 0.80 0.84
0.00 0.00 0.00 0.00 0.01 0.01 0.01 0.02 0.03 0.06 0.08 0.16 0.28 0.25 0.37 0.40 0.61 0.73 0.88 0.67 0.72 0.98 1.17 1.05 0.91 0.85 1.18 1.22 1.24 1.46 1.49 1.31 1.29 1.19 1.41 1.18 1.00 0.92 0.95 0.92 0.73 0.70 0.61
0.01 0.00 0.01 0.01 0.03 0.04 0.04 0.06 0.06 0.06 0.04 0.06 0.10 0.09 0.15 0.13 0.15 0.18 0.47 0.75 0.81 1.21 1.50 1.15 1.08 0.87 0.81 0.97 0.99 1.12 1.31 1.48 1.53 1.55 1.66 1.35 1.15 0.94 0.81 0.80 0.84 0.60 0.42
0.08 0.05 0.04 0.04 0.04 0.05 0.05 0.05 0.11 0.13 0.08 0.10 0.08 0.10 0.11 0.14 0.14 0.09 0.13 0.42 0.70 0.60 1.16 1.33 1.29 1.07 0.91 0.80 0.83 0.71 0.69 0.60 0.77 0.55 0.47 0.59 0.51 0.50 0.60 0.52 0.40 0.39 0.23
0.12 0.13 0.16 0.09 0.08 0.15 0.09 0.06 0.09 0.11 0.15 0.16 0.18 0.14 0.16 0.16 0.12 0.09 0.12 0.20 0.42 0.86 1.03 1.31 1.12 1.20 1.15 1.11 1.31 1.38 1.06 0.78 0.65 0.71 0.44 0.41 0.39 0.31 0.38 0.40 0.33 0.38 0.30
0.23 0.16 0.12 0.10 0.10 0.21 0.32 0.24 0.25 0.24 0.18 0.14 0.15 0.19 0.20 0.18 0.18 0.19 0.29 0.39 0.50 0.83 1.01 1.26 1.22 1.12 1.23 1.14 1.16 1.39 1.61 1.57 1.08 0.93 0.81 0.65 0.48 0.43 0.50 0.65 0.54 0.44 0.32
0.49 0.34 0.24 0.20 0.15 0.11 0.18 0.31 0.49 0.53 0.48 0.40 0.36 0.39 0.42 0.41 0.41 0.46 0.65 0.64 0.47 0.46 0.88 1.36 1.51 1.27 1.28 1.36 1.38 1.48 1.49 1.80 1.86 1.23 0.96 0.73 0.61 0.63 0.59 0.66 0.84 0.72 0.48
0.57 0.50 0.38 0.27 0.22 0.18 0.35 0.41 0.37 0.31 0.46 0.61 0.52 0.55 0.61 0.68 0.82 0.80 0.83 0.79 0.56 0.39 0.47 0.59 1.00 1.16 1.28 1.54 1.76 1.59 1.37 1.39 1.53 1.29 0.99 0.83 0.58 0.65 0.64 0.59 0.61 0.67 0.61
0.44 0.32 0.25 0.27 0.30 0.62 0.97 1.06 0.91 0.74 0.71 0.79 0.73 0.78 0.86 0.87 0.90 0.78 0.94 0.83 0.78 0.74 0.80 0.72 0.95 1.23 1.53 1.57 1.59 1.35 1.20 1.28 1.36 1.57 1.49 1.07 0.68 0.65 0.77 0.75 0.74 0.77 0.75
0.13 0.14 0.19 0.26 0.44 0.57 0.84 1.07 1.28 1.65 1.41 1.37 1.42 1.19 1.00 1.13 1.14 1.10 1.10 1.13 1.04 1.06 1.02 1.03 1.03 0.84 0.98 1.32 1.61 1.66 1.58 1.67 1.71 1.76 1.53 1.14 1.03 1.05 1.03 1.06 1.03 0.93 0.93
0.08 0.07 0.07 0.10 0.32 0.55 0.70 0.82 1.13 1.80 1.70 1.32 1.55 1.67 1.40 1.71 2.06 2.10 1.80 1.93 1.88 1.64 1.50 1.19 1.00 0.80 0.67 0.83 1.43 1.75 1.61 1.40 1.64 1.93 1.90 1.55 1.36 1.31 1.23 1.15 1.02 0.84 0.80
0.06 0.07 0.09 0.12 0.20 0.37 0.58 0.75 1.07 1.58 1.75 1.93 1.82 1.65 1.39 1.76 1.58 1.21 0.99 0.86 0.82 0.79 0.83 0.83 0.82 0.84 0.61 0.53 0.72 1.17 1.69 1.56 1.37 1.56 1.86 1.61 1.39 1.21 1.16 1.09 0.89 0.77 0.74
0.14 0.15 0.16 0.19 0.25 0.42 0.58 0.74 1.26 1.48 1.40 1.70 1.73 1.52 1.37 1.28 1.03 0.88 0.78 0.65 0.57 0.36 0.43 0.63 0.78 0.99 0.93 0.95 0.92 0.97 1.06 1.46 1.43 1.32 1.32 1.50 1.44 1.07 0.91 0.90 0.94 0.99 0.92
0.13 0.20 0.22 0.22 0.23 0.31 0.36 0.45 0.58 1.06 1.20 1.46 1.91 1.81 1.56 1.43 1.52 1.54 1.41 0.88 0.76 0.66 0.52 0.48 0.45 0.79 1.15 0.84 0.77 0.72 1.01 1.20 1.40 1.41 1.43 1.20 1.48 1.45 1.23 1.11 0.90 0.92 1.03
0.16 0.17 0.17 0.17 0.19 0.20 0.19 0.26 0.36 0.43 0.61 0.70 1.16 1.60 1.97 1.29 1.34 1.61 1.81 1.36 0.94 1.02 0.78 0.85 0.68 0.62 0.86 1.28 0.93 0.79 0.61 0.82 1.03 1.09 1.08 1.48 1.70 1.24 1.26 1.36 1.39 1.33 1.20
0.20 0.18 0.20 0.19 0.22 0.23 0.21 0.27 0.34 0.32 0.42 0.58 0.97 1.11 1.39 1.81 1.40 1.57 1.68 1.93 1.59 1.26 1.24 1.00 0.98 0.91 0.87 1.41 0.98 1.07 0.96 0.85 0.71 0.85 0.96 0.90 1.58 1.91 1.33 1.46 1.55 1.71 1.90
0.69 0.36 0.29 0.26 0.25 0.28 0.28 0.29 0.32 0.35 0.40 0.53 0.71 0.86 0.81 1.32 1.68 1.34 1.29 1.36 1.52 1.62 1.52 1.21 1.00 0.77 0.81 1.03 1.30 1.43 1.08 0.99 0.80 0.73 0.81 0.90 0.99 1.65 1.71 1.38 1.56 1.69 1.99
0.86 1.09 0.61 0.42 0.45 0.38 0.35 0.36 0.37 0.41 0.39 0.61 0.80 0.99 1.10 1.13 1.22 1.48 1.35 1.45 1.35 1.33 1.45 1.29 0.95 0.85 0.87 1.30 1.24 1.25 0.92 1.10 1.06 0.94 1.03 1.02 0.86 1.47 1.71 1.35 1.50 1.60 1.87
0.69 0.68 0.95 0.88 0.73 0.79 0.57 0.44 0.42 0.37 0.46 0.53 0.66 0.80 0.97 1.16 1.39 1.71 1.85 1.75 1.60 1.38 1.22 1.20 1.18 1.38 1.09 1.48 1.36 1.34 0.94 0.86 1.02 1.01 1.15 1.77 1.29 1.34 1.14 1.00 1.01 1.47 1.89
0.54 0.58 0.54 0.73 0.94 0.89 0.92 0.76 0.55 0.51 0.55 0.59 0.61 0.68 0.80 1.03 1.20 1.24 1.40 1.67 1.85 1.80 1.51 1.39 1.31 1.24 1.42 1.57 1.74 1.56 1.24 1.25 1.11 1.16 1.27 1.46 1.91 1.47 1.55 1.57 1.40 2.24 2.29
0.45 0.38 0.42 0.42 0.35 0.27 0.33 0.65 0.84 0.85 0.73 0.68 0.66 0.79 0.84 0.92 1.02 1.06 1.09 1.09 1.22 1.53 1.76 1.63 1.62 1.65 1.71 1.90 1.82 1.72 1.68 1.68 1.36 1.60 1.45 1.80 1.81 1.36 1.47 1.69 2.16 2.23 1.89
0.29 0.16 0.15 0.10 0.07 0.08 0.09 0.16 0.31 0.51 0.62 0.70 0.80 0.77 0.71 0.65 0.60 0.64 0.80 0.93 0.97 0.94 1.00 1.13 1.33 1.50 1.59 1.76 1.93 1.86 1.86 1.88 1.74 2.07 2.37 2.26 1.77 1.52 1.64 1.87 1.89 1.81 1.77
0.20 0.07 0.03 0.02 0.07 0.11 0.12 0.13 0.12 0.11 0.14 0.17 0.25 0.28 0.32 0.37 0.34 0.40 0.46 0.48 0.58 0.70 0.85 0.95 1.02 1.08 1.10 1.15 1.21 1.25 1.34 1.52 1.66 1.98 2.07 2.00 1.89 1.85 1.96 1.94 1.87 1.85 1.96
0.39 0.16 0.12 0.15 0.17 0.12 0.12 0.14 0.14 0.12 0.15 0.14 0.17 0.18 0.20 0.25 0.27 0.34 0.44 0.42 0.59 0.62 0.67 0.84 0.89 0.94 1.16 1.52 1.49 1.45 1.52 1.62 1.81 1.90 2.04 2.07 2.05 2.03 2.04 1.97 1.92 1.88 1.79
0.45 0.36 0.32 0.27 0.22 0.19 0.24 0.24 0.21 0.18 0.18 0.17 0.19 0.24 0.18 0.19 0.22 0.22 0.35 0.56 0.63 0.59 0.65 0.75 0.78 1.10 1.32 1.41 1.37 1.36 1.39 1.41 1.41 1.36 1.43 1.39 1.32 1.25 1.17 1.12 1.08 1.02 1.02

GFSMW_prec_precacc_141.txt.gz
Total_Precipitation_Accumulation
0.02 0.03 0.02 0.02 0.01 0.06 0.04 0.10 0.27 0.28 0.44 0.41 0.29 0.36 0.36 0.57 0.42 0.45 0.54 0.95 1.17 1.89 1.04 0.56 0.32 0.43 0.50 0.61 1.05 1.50 1.44 1.51 1.84 2.51 2.43 1.86 1.70 2.06 2.41 2.97 2.95 3.36 3.33
0.01 0.01 0.00 0.00 0.01 0.05 0.04 0.02 0.04 0.13 0.21 0.26 0.29 0.18 0.23 0.33 0.51 0.56 0.65 0.72 0.83 1.21 1.45 0.85 0.61 0.43 0.52 0.58 0.72 1.10 1.21 1.24 1.37 1.64 1.67 1.71 1.35 1.06 0.86 0.88 0.90 0.81 0.84
0.00 0.00 0.00 0.00 0.01 0.01 0.01 0.02 0.03 0.06 0.08 0.16 0.28 0.25 0.37 0.40 0.61 0.73 0.88 0.67 0.72 0.98 1.17 1.05 0.91 0.85 1.18 1.22 1.24 1.46 1.49 1.31 1.29 1.19 1.41 1.18 1.00 0.92 0.95 0.92 0.73 0.71 0.62
0.01 0.00 0.01 0.01 0.03 0.04 0.04 0.06 0.06 0.06 0.04 0.06 0.10 0.09 0.15 0.13 0.15 0.18 0.47 0.75 0.81 1.21 1.50 1.15 1.08 0.87 0.81 0.97 0.99 1.12 1.31 1.48 1.53 1.55 1.66 1.35 1.15 0.94 0.81 0.80 0.84 0.60 0.42
0.08 0.05 0.04 0.04 0.04 0.05 0.05 0.05 0.11 0.13 0.08 0.10 0.08 0.10 0.11 0.14 0.14 0.09 0.13 0.42 0.70 0.60 1.16 1.33 1.29 1.07 0.91 0.80 0.83 0.71 0.69 0.60 0.78 0.55 0.47 0.59 0.51 0.50 0.60 0.53 0.40 0.39 0.23
0.12 0.13 0.16 0.09 0.08 0.15 0.09 0.06 0.09 0.11 0.15 0.16 0.18 0.14 0.16 0.16 0.12 0.09 0.12 0.20 0.42 0.86 1.03 1.31 1.12 1.20 1.15 1.11 1.31 1.38 1.06 0.78 0.65 0.71 0.44 0.41 0.40 0.31 0.39 0.40 0.33 0.38 0.30
0.23 0.16 0.12 0.10 0.10 0.21 0.32 0.24 0.25 0.24 0.18 0.14 0.15 0.19 0.20 0.18 0.18 0.19 0.29 0.39 0.50 0.83 1.01 1.26 1.22 1.12 1.23 1.14 1.16 1.39 1.61 1.57 1.08 0.93 0.81 0.65 0.48 0.43 0.50 0.65 0.54 0.44 0.32
0.49 0.34 0.24 0.20 0.15 0.11 0.18 0.31 0.49 0.53 0.48 0.40 0.36 0.39 0.42 0.41 0.41 0.46 0.65 0.64 0.47 0.46 0.88 1.36 1.51 1.27 1.28 1.36 1.38 1.48 1.49 1.80 1.86 1.23 0.96 0.73 0.61 0.63 0.60 0.66 0.84 0.72 0.48
0.57 0.50 0.38 0.27 0.22 0.18 0.35 0.41 0.37 0.31 0.46 0.61 0.52 0.55 0.61 0.68 0.82 0.80 0.83 0.79 0.56 0.39 0.47 0.59 1.00 1.16 1.28 1.54 1.76 1.59 1.37 1.39 1.53 1.29 0.99 0.83 0.59 0.66 0.66 0.60 0.62 0.68 0.62
0.44 0.32 0.25 0.27 0.30 0.62 0.97 1.06 0.91 0.74 0.71 0.79 0.73 0.78 0.86 0.87 0.90 0.78 0.94 0.83 0.78 0.74 0.80 0.72 0.95 1.23 1.53 1.57 1.59 1.35 1.20 1.28 1.36 1.58 1.50 1.09 0.70 0.67 0.78 0.76 0.75 0.78 0.76
0.13 0.14 0.19 0.26 0.44 0.57 0.84 1.07 1.28 1.65 1.41 1.37 1.42 1.19 1.00 1.13 1.14 1.10 1.10 1.13 1.04 1.06 1.02 1.03 1.03 0.84 0.98 1.32 1.61 1.66 1.58 1.67 1.71 1.77 1.55 1.18 1.08 1.10 1.08 1.09 1.04 0.94 0.94
0.08 0.07 0.07 0.10 0.32 0.55 0.70 0.82 1.13 1.80 1.70 1.32 1.55 1.67 1.40 1.71 2.06 2.10 1.80 1.93 1.88 1.64 1.50 1.19 1.00 0.80 0.67 0.83 1.43 1.75 1.61 1.40 1.64 1.93 1.91 1.56 1.38 1.34 1.27 1.19 1.04 0.86 0.81
0.06 0.07 0.09 0.12 0.20 0.37 0.58 0.75 1.07 1.58 1.75 1.93 1.82 1.65 1.39 1.76 1.58 1.21 0.99 0.86 0.82 0.79 0.83 0.83 0.82 0.84 0.61 0.53 0.72 1.17 1.69 1.56 1.37 1.56 1.86 1.61 1.39 1.21 1.16 1.09 0.90 0.77 0.74
0.14 0.15 0.16 0.19 0.25 0.42 0.58 0.74 1.26 1.48 1.40 1.70 1.73 1.52 1.37 1.28 1.03 0.88 0.78 0.65 0.57 0.36 0.43 0.63 0.78 0.99 0.93 0.95 0.92 0.97 1.06 1.46 1.43 1.32 1.32 1.50 1.44 1.07 0.91 0.90 0.94 0.99 0.92
0.13 0.21 0.23 0.23 0.23 0.31 0.37 0.45 0.58 1.06 1.20 1.46 1.91 1.81 1.56 1.43 1.52 1.54 1.41 0.88 0.76 0.66 0.52 0.48 0.45 0.79 1.15 0.84 0.77 0.72 1.01 1.20 1.40 1.41 1.43 1.20 1.48 1.45 1.24 1.11 0.91 0.92 1.03
0.22 0.24 0.28 0.29 0.28 0.24 0.20 0.26 0.36 0.43 0.61 0.70 1.16 1.60 1.97 1.29 1.34 1.61 1.81 1.36 0.94 1.02 0.78 0.85 0.68 0.62 0.87 1.28 0.93 0.79 0.61 0.82 1.03 1.09 1.08 1.48 1.70 1.24 1.26 1.36 1.39 1.33 1.21
0.21 0.19 0.20 0.19 0.22 0.23 0.22 0.28 0.36 0.33 0.42 0.58 0.97 1.11 1.39 1.81 1.40 1.57 1.68 1.93 1.59 1.26 1.24 1.00 0.98 0.91 0.87 1.41 0.98 1.07 0.96 0.85 0.71 0.85 0.96 0.90 1.58 1.91 1.33 1.46 1.55 1.71 1.90
0.69 0.36 0.29 0.26 0.26 0.29 0.33 0.36 0.39 0.36 0.40 0.53 0.71 0.86 0.81 1.32 1.68 1.34 1.29 1.36 1.52 1.62 1.52 1.21 1.00 0.77 0.81 1.03 1.30 1.43 1.08 0.99 0.80 0.73 0.81 0.90 0.99 1.65 1.71 1.38 1.56 1.69 1.99
0.86 1.09 0.61 0.42 0.46 0.42 0.42 0.41 0.38 0.42 0.39 0.61 0.80 0.99 1.10 1.13 1.22 1.48 1.35 1.45 1.35 1.33 1.45 1.29 0.95 0.85 0.87 1.30 1.24 1.25 0.92 1.10 1.06 0.94 1.03 1.02 0.86 1.47 1.71 1.35 1.50 1.60 1.87
0.69 0.68 0.96 0.89 0.74 0.79 0.57 0.44 0.44 0.38 0.46 0.53 0.66 0.80 0.97 1.16 1.39 1.71 1.85 1.75 1.60 1.38 1.22 1.20 1.18 1.38 1.09 1.48 1.36 1.34 0.94 0.86 1.02 1.01 1.15 1.77 1.29 1.34 1.14 1.00 1.01 1.47 1.89
0.55 0.58 0.54 0.74 0.94 0.89 0.92 0.76 0.55 0.51 0.55 0.59 0.61 0.68 0.80 1.03 1.20 1.24 1.41 1.67 1.85 1.80 1.51 1.39 1.31 1.24 1.42 1.57 1.74 1.56 1.24 1.25 1.11 1.16 1.27 1.46 1.91 1.47 1.55 1.57 1.40 2.24 2.29
0.45 0.38 0.43 0.42 0.35 0.27 0.33 0.65 0.84 0.85 0.73 0.68 0.66 0.79 0.84 0.92 1.02 1.06 1.09 1.09 1.22 1.53 1.76 1.63 1.62 1.65 1.71 1.90 1.82 1.72 1.68 1.68 1.36 1.60 1.45 1.80 1.81 1.36 1.47 1.69 2.16 2.23 1.89
0.29 0.16 0.15 0.10 0.07 0.08 0.09 0.16 0.31 0.52 0.62 0.70 0.80 0.77 0.71 0.65 0.60 0.64 0.81 0.94 0.97 0.94 1.00 1.13 1.33 1.50 1.59 1.76 1.93 1.86 1.86 1.88 1.74 2.07 2.37 2.26 1.77 1.52 1.64 1.87 1.89 1.81 1.77
0.20 0.07 0.03 0.02 0.07 0.11 0.12 0.13 0.12 0.11 0.14 0.17 0.25 0.28 0.32 0.37 0.34 0.40 0.46 0.48 0.58 0.70 0.85 0.95 1.02 1.08 1.10 1.15 1.21 1.25 1.34 1.52 1.66 1.98 2.07 2.00 1.89 1.85 1.96 1.94 1.87 1.85 1.96
0.39 0.16 0.12 0.15 0.17 0.13 0.12 0.15 0.14 0.12 0.15 0.14 0.17 0.18 0.20 0.25 0.27 0.34 0.44 0.42 0.59 0.62 0.67 0.84 0.89 0.94 1.16 1.52 1.49 1.45 1.52 1.62 1.81 1.90 2.04 2.07 2.05 2.03 2.04 1.97 1.92 1.88 1.79
0.45 0.36 0.32 0.27 0.23 0.21 0.26 0.25 0.22 0.18 0.18 0.17 0.19 0.24 0.18 0.19 0.22 0.22 0.35 0.56 0.63 0.59 0.65 0.75 0.78 1.10 1.32 1.41 1.37 1.36 1.39 1.41 1.41 1.36 1.43 1.39 1.32 1.25 1.17 1.12 1.08 1.02 1.02

GFSMW_prec_precacc_147.txt.gz
Total_Precipitation_Accumulation
0.02 0.03 0.02 0.02 0.01 0.06 0.04 0.10 0.27 0.28 0.44 0.41 0.29 0.36 0.36 0.57 0.42 0.45 0.54 0.95 1.17 1.89 1.04 0.56 0.32 0.43 0.50 0.61 1.05 1.50 1.44 1.51 1.84 2.51 2.43 1.86 1.70 2.06 2.41 2.97 2.95 3.36 3.33
0.01 0.01 0.00 0.00 0.01 0.05 0.04 0.02 0.04 0.13 0.21 0.26 0.29 0.18 0.23 0.33 0.51 0.56 0.65 0.72 0.83 1.21 1.45 0.85 0.61 0.43 0.52 0.58 0.72 1.10 1.21 1.24 1.37 1.64 1.67 1.71 1.35 1.06 0.86 0.88 0.90 0.81 0.84
0.00 0.00 0.00 0.00 0.01 0.01 0.01 0.02 0.03 0.06 0.08 0.16 0.28 0.25 0.37 0.40 0.61 0.73 0.88 0.67 0.72 0.98 1.17 1.05 0.91 0.85 1.18 1.22 1.24 1.46 1.49 1.31 1.29 1.19 1.41 1.18 1.00 0.92 0.95 0.92 0.73 0.71 0.62
0.01 0.00 0.01 0.01 0.03 0.04 0.04 0.06 0.06 0.06 0.04 0.06 0.10 0.09 0.15 0.13 0.15 0.18 0.47 0.75 0.81 1.21 1.50 1.15 1.08 0.87 0.81 0.97 0.99 1.12 1.31 1.48 1.53 1.55 1.66 1.35 1.15 0.95 0.81 0.80 0.84 0.60 0.42
0.08 0.05 0.04 0.04 0.04 0.05 0.05 0.05 0.11 0.13 0.08 0.10 0.08 0.10 0.11 0.14 0.14 0.09 0.13 0.42 0.70 0.60 1.16 1.33 1.29 1.07 0.91 0.80 0.83 0.71 0.69 0.60 0.78 0.55 0.47 0.59 0.51 0.51 0.61 0.53 0.40 0.39 0.23
0.12 0.13 0.16 0.09 0.08 0.15 0.09 0.06 0.09 0.11 0.15 0.16 0.18 0.14 0.16 0.16 0.12 0.09 0.12 0.20 0.42 0.86 1.03 1.31 1.12 1.20 1.15 1.11 1.31 1.38 1.06 0.78 0.65 0.71 0.44 0.41 0.40 0.31 0.39 0.40 0.34 0.38 0.30
0.23 0.16 0.12 0.10 0.10 0.21 0.32 0.24 0.25 0.24 0.18 0.14 0.15 0.19 0.20 0.18 0.18 0.19 0.29 0.39 0.50 0.83 1.01 1.26 1.22 1.12 1.23 1.14 1.16 1.39 1.61 1.57 1.08 0.93 0.81 0.65 0.48 0.44 0.50 0.65 0.55 0.45 0.32
0.49 0.34 0.24 0.20 0.15 0.11 0.18 0.31 0.49 0.53 0.48 0.40 0.36 0.39 0.42 0.41 0.41 0.46 0.65 0.64 0.47 0.46 0.88 1.36 1.51 1.27 1.28 1.36 1.38 1.48 1.49 1.80 1.86 1.23 0.96 0.73 0.61 0.64 0.61 0.67 0.85 0.73 0.48
0.57 0.50 0.38 0.27 0.22 0.18 0.35 0.41 0.37 0.31 0.46 0.61 0.52 0.55 0.61 0.68 0.82 0.80 0.83 0.79 0.56 0.39 0.47 0.59 1.00 1.16 1.28 1.54 1.76 1.59 1.37 1.39 1.53 1.29 0.99 0.83 0.59 0.67 0.67 0.61 0.64 0.72 0.64
0.44 0.32 0.25 0.27 0.30 0.62 0.97 1.06 0.91 0.74 0.71 0.79 0.73 0.78 0.86 0.87 0.90 0.78 0.94 0.83 0.78 0.74 0.80 0.72 0.95 1.23 1.53 1.57 1.59 1.35 1.20 1.28 1.36 1.58 1.50 1.09 0.70 0.67 0.79 0.78 0.78 0.83 0.81
0.13 0.14 0.19 0.26 0.44 0.57 0.84 1.07 1.28 1.65 1.41 1.37 1.42 1.19 1.00 1.13 1.14 1.10 1.10 1.13 1.04 1.06 1.02 1.03 1.03 0.84 0.98 1.32 1.61 1.66 1.58 1.67 1.71 1.77 1.55 1.18 1.08 1.11 1.09 1.13 1.11 1.02 1.02
0.08 0.07 0.07 0.10 0.32 0.55 0.70 0.82 1.13 1.80 1.70 1.32 1.55 1.67 1.40 1.71 2.06 2.10 1.80 1.93 1.88 1.64 1.50 1.19 1.00 0.80 0.67 0.83 1.43 1.75 1.61 1.40 1.64 1.93 1.91 1.56 1.38 1.34 1.28 1.23 1.12 0.94 0.90
0.06 0.07 0.09 0.12 0.20 0.37 0.58 0.75 1.07 1.58 1.75 1.93 1.82 1.65 1.39 1.76 1.58 1.21 0.99 0.86 0.82 0.79 0.83 0.83 0.82 0.84 0.61 0.53 0.72 1.17 1.69 1.56 1.37 1.56 1.86 1.61 1.39 1.21 1.16 1.09 0.90 0.77 0.75
0.14 0.15 0.16 0.19 0.25 0.42 0.58 0.74 1.26 1.48 1.40 1.70 1.73 1.52 1.37 1.28 1.03 0.88 0.78 0.65 0.57 0.36 0.43 0.63 0.78 0.99 0.93 0.95 0.92 0.97 1.06 1.46 1.43 1.32 1.32 1.50 1.44 1.07 0.92 0.90 0.94 0.99 0.92
0.13 0.21 0.23 0.23 0.23 0.31 0.37 0.45 0.58 1.06 1.20 1.46 1.91 1.81 1.56 1.43 1.52 1.54 1.41 0.88 0.76 0.66 0.52 0.48 0.45 0.79 1.15 0.84 0.77 0.72 1.01 1.20 1.40 1.41 1.43 1.20 1.48 1.45 1.24 1.11 0.91 0.92 1.03
0.22 0.24 0.28 0.29 0.29 0.28 0.24 0.29 0.37 0.45 0.62 0.71 1.16 1.60 1.97 1.29 1.34 1.61 1.81 1.36 0.94 1.02 0.78 0.85 0.68 0.62 0.87 1.28 0.93 0.79 0.61 0.82 1.03 1.09 1.08 1.48 1.70 1.24 1.26 1.36 1.39 1.33 1.21
0.22 0.21 0.22 0.20 0.24 0.27 0.26 0.30 0.37 0.34 0.45 0.60 0.97 1.12 1.39 1.81 1.40 1.57 1.68 1.93 1.59 1.26 1.24 1.00 0.98 0.91 0.87 1.41 0.98 1.07 0.96 0.85 0.71 0.85 0.96 0.90 1.58 1.91 1.33 1.46 1.55 1.71 1.90
0.72 0.38 0.33 0.33 0.36 0.40 0.40 0.42 0.48 0.52 0.56 0.63 0.78 0.90 0.81 1.32 1.68 1.34 1.29 1.36 1.52 1.62 1.52 1.21 1.00 0.77 0.81 1.03 1.30 1.43 1.08 0.99 0.80 0.73 0.81 0.90 0.99 1.65 1.71 1.38 1.56 1.69 1.99
0.97 1.18 0.69 0.52 0.60 0.57 0.56 0.57 0.60 0.54 0.53 0.75 0.89 1.02 1.10 1.13 1.22 1.48 1.35 1.45 1.35 1.33 1.45 1.29 0.95 0.85 0.87 1.30 1.24 1.25 0.92 1.10 1.06 0.95 1.03 1.02 0.86 1.47 1.71 1.35 1.50 1.60 1.87
0.71 0.73 1.03 0.97 0.85 0.94 0.68 0.53 0.56 0.60 0.73 0.67 0.71 0.82 0.97 1.16 1.39 1.71 1.85 1.75 1.60 1.38 1.22 1.20 1.18 1.38 1.09 1.48 1.36 1.34 0.94 0.86 1.02 1.01 1.15 1.77 1.29 1.35 1.14 1.00 1.01 1.47 1.89
0.55 0.58 0.55 0.76 0.98 0.94 1.00 0.88 0.73 0.79 0.81 0.69 0.64 0.68 0.80 1.03 1.20 1.24 1.41 1.67 1.85 1.80 1.51 1.39 1.31 1.24 1.42 1.57 1.74 1.56 1.24 1.25 1.11 1.16 1.27 1.46 1.91 1.47 1.55 1.57 1.40 2.24 2.29
0.45 0.38 0.43 0.43 0.36 0.28 0.35 0.68 0.93 1.03 0.89 0.72 0.67 0.79 0.84 0.92 1.02 1.06 1.09 1.09 1.22 1.53 1.76 1.63 1.62 1.65 1.71 1.91 1.83 1.72 1.68 1.68 1.36 1.60 1.45 1.80 1.81 1.36 1.47 1.69 2.16 2.23 1.89
0.29 0.16 0.15 0.10 0.08 0.09 0.11 0.18 0.37 0.60 0.72 0.74 0.80 0.77 0.71 0.65 0.60 0.65 0.81 0.94 0.97 0.94 1.00 1.13 1.33 1.50 1.60 1.77 1.94 1.87 1.86 1.88 1.74 2.07 2.37 2.26 1.77 1.52 1.64 1.87 1.89 1.81 1.77
0.20 0.07 0.03 0.02 0.08 0.11 0.13 0.15 0.23 0.22 0.18 0.18 0.25 0.28 0.32 0.38 0.35 0.40 0.46 0.48 0.58 0.70 0.85 0.95 1.02 1.08 1.10 1.15 1.21 1.25 1.34 1.52 1.66 1.98 2.07 2.00 1.89 1.85 1.96 1.94 1.87 1.85 1.96
0.39 0.16 0.12 0.15 0.18 0.13 0.13 0.19 0.20 0.19 0.22 0.18 0.17 0.18 0.20 0.25 0.28 0.34 0.45 0.42 0.59 0.62 0.67 0.84 0.89 0.94 1.16 1.52 1.49 1.45 1.52 1.62 1.81 1.90 2.04 2.07 2.05 2.03 2.04 1.97 1.92 1.88 1.79
0.45 0.36 0.32 0.27 0.23 0.21 0.31 0.36 0.31 0.21 0.19 0.18 0.19 0.24 0.18 0.20 0.22 0.23 0.37 0.57 0.63 0.59 0.65 0.75 0.78 1.10 1.32 1.42 1.37 1.36 1.39 1.41 1.41 1.36 1.43 1.39 1.32 1.25 1.17 1.12 1.08 1.02 1.02

GFSMW_prec_precacc_153.txt.gz
Total_Precipitation_Accumulation
0.02 0.03 0.02 0.02 0.01 0.06 0.04 0.10 0.27 0.28 0.44 0.41 0.29 0.36 0.36 0.57 0.42 0.45 0.54 0.95 1.17 1.89 1.04 0.56 0.32 0.43 0.50 0.61 1.05 1.50 1.44 1.51 1.84 2.51 2.43 1.86 1.70 2.06 2.41 2.97 2.95 3.36 3.33
0.01 0.01 0.00 0.00 0.01 0.05 0.04 0.02 0.04 0.13 0.21 0.26 0.29 0.18 0.23 0.33 0.51 0.56 0.65 0.72 0.83 1.21 1.45 0.85 0.61 0.43 0.52 0.58 0.72 1.10 1.21 1.24 1.37 1.64 1.67 1.71 1.35 1.06 0.86 0.88 0.90 0.81 0.84
0.00 0.00 0.00 0.00 0.01 0.01 0.01 0.02 0.03 0.06 0.08 0.16 0.28 0.25 0.37 0.40 0.61 0.73 0.88 0.67 0.72 0.98 1.17 1.05 0.91 0.85 1.18 1.22 1.24 1.46 1.49 1.31 1.29 1.19 1.41 1.18 1.00 0.92 0.95 0.92 0.73 0.71 0.62
0.01 0.00 0.01 0.01 0.03 0.04 0.04 0.06 0.06 0.06 0.04 0.06 0.10 0.09 0.15 0.13 0.15 0.18 0.47 0.75 0.81 1.21 1.50 1.15 1.08 0.87 0.81 0.97 0.99 1.12 1.31 1.48 1.53 1.55 1.66 1.35 1.15 0.95 0.82 0.80 0.84 0.60 0.42
0.08 0.05 0.04 0.04 0.04 0.05 0.05 0.05 0.11 0.13 0.08 0.10 0.08 0.10 0.11 0.14 0.14 0.09 0.13 0.42 0.70 0.60 1.16 1.33 1.29 1.07 0.91 0.80 0.83 0.71 0.69 0.60 0.78 0.55 0.47 0.59 0.51 0.51 0.61 0.53 0.40 0.39 0.23
0.12 0.13 0.16 0.09 0.08 0.15 0.09 0.06 0.09 0.11 0.15 0.16 0.18 0.14 0.16 0.16 0.12 0.09 0.12 0.20 0.42 0.86 1.03 1.31 1.12 1.20 1.15 1.11 1.31 1.38 1.06 0.78 0.65 0.71 0.44 0.41 0.40 0.31 0.39 0.40 0.34 0.38 0.30
0.23 0.16 0.12 0.10 0.10 0.21 0.32 0.24 0.25 0.24 0.18 0.14 0.15 0.19 0.20 0.18 0.18 0.19 0.29 0.39 0.50 0.83 1.01 1.26 1.22 1.12 1.23 1.14 1.16 1.39 1.61 1.57 1.08 0.93 0.81 0.65 0.48 0.44 0.50 0.65 0.55 0.45 0.32
0.49 0.34 0.24 0.20 0.15 0.11 0.18 0.31 0.49 0.53 0.48 0.40 0.36 0.39 0.42 0.41 0.41 0.46 0.65 0.64 0.47 0.46 0.88 1.36 1.51 1.27 1.28 1.36 1.38 1.48 1.49 1.80 1.86 1.23 0.96 0.73 0.61 0.64 0.61 0.68 0.86 0.73 0.48
0.57 0.50 0.38 0.27 0.22 0.18 0.35 0.41 0.37 0.31 0.46 0.61 0.52 0.55 0.61 0.68 0.82 0.80 0.83 0.79 0.56 0.39 0.47 0.59 1.00 1.16 1.28 1.54 1.76 1.59 1.37 1.39 1.53 1.29 0.99 0.83 0.59 0.67 0.67 0.61 0.65 0.73 0.64
0.44 0.32 0.25 0.27 0.30 0.62 0.97 1.06 0.91 0.74 0.71 0.79 0.73 0.78 0.86 0.87 0.90 0.78 0.94 0.83 0.78 0.74 0.80 0.72 0.95 1.23 1.53 1.57 1.59 1.35 1.20 1.28 1.36 1.58 1.50 1.09 0.70 0.67 0.79 0.78 0.79 0.83 0.82
0.13 0.14 0.19 0.26 0.44 0.57 0.84 1.07 1.28 1.65 1.41 1.37 1.42 1.19 1.00 1.13 1.14 1.10 1.10 1.13 1.04 1.06 1.02 1.03 1.03 0.84 0.98 1.32 1.61 1.66 1.58 1.67 1.71 1.77 1.55 1.18 1.08 1.11 1.09 1.13 1.12 1.02 1.03
0.08 0.07 0.07 0.10 0.32 0.55 0.70 0.82 1.13 1.80 1.70 1.32 1.55 1.67 1.40 1.71 2.06 2.10 1.80 1.93 1.88 1.64 1.50 1.19 1.00 0.80 0.67 0.83 1.43 1.75 1.61 1.40 1.64 1.93 1.91 1.56 1.38 1.34 1.28 1.23 1.12 0.95 0.90
0.06 0.07 0.09 0.12 0.20 0.37 0.58 0.75 1.07 1.58 1.75 1.93 1.82 1.65 1.39 1.76 1.58 1.21 0.99 0.86 0.82 0.79 0.83 0.83 0.82 0.84 0.61 0.53 0.72 1.17 1.69 1.56 1.37 1.56 1.86 1.61 1.39 1.21 1.16 1.09 0.90 0.77 0.75
0.14 0.15 0.16 0.19 0.25 0.42 0.58 0.74 1.26 1.48 1.40 1.70 1.73 1.52 1.37 1.28 1.03 0.88 0.78 0.65 0.57 0.36 0.43 0.63 0.78 0.99 0.93 0.95 0.92 0.97 1.06 1.46 1.43 1.32 1.32 1.50 1.44 1.07 0.92 0.90 0.94 0.99 0.92
0.13 0.21 0.23 0.23 0.23 0.31 0.37 0.45 0.58 1.06 1.21 1.46 1.92 1.82 1.57 1.43 1.52 1.54 1.41 0.88 0.76 0.66 0.52 0.48 0.45 0.79 1.15 0.84 0.77 0.72 1.01 1.20 1.40 1.41 1.43 1.20 1.48 1.45 1.24 1.11 0.91 0.92 1.03
0.22 0.24 0.28 0.29 0.29 0.28 0.24 0.29 0.38 0.45 0.62 0.72 1.17 1.61 1.98 1.30 1.35 1.61 1.82 1.37 0.94 1.02 0.79 0.85 0.68 0.62 0.87 1.28 0.93 0.79 0.61 0.82 1.03 1.09 1.08 1.48 1.70 1.24 1.26 1.36 1.39 1.33 1.21
0.23 0.22 0.23 0.21 0.25 0.27 0.27 0.33 0.40 0.38 0.49 0.64 1.00 1.14 1.42 1.85 1.45 1.61 1.72 1.95 1.60 1.26 1.24 1.00 0.98 0.91 0.87 1.41 0.98 1.07 0.96 0.85 0.71 0.85 0.96 0.90 1.58 1.91 1.33 1.46 1.55 1.71 1.90
0.77 0.45 0.39 0.38 0.42 0.48 0.52 0.55 0.61 0.67 0.75 0.83 0.98 1.14 1.04 1.52 1.85 1.48 1.38 1.41 1.54 1.63 1.52 1.21 1.00 0.77 0.81 1.03 1.30 1.43 1.08 0.99 0.80 0.73 0.81 0.90 0.99 1.65 1.71 1.38 1.56 1.69 1.99
0.98 1.25 0.84 0.74 0.88 0.90 1.01 1.14 1.16 1.14 1.06 1.24 1.37 1.51 1.53 1.49 1.50 1.69 1.48 1.53 1.39 1.35 1.45 1.29 0.95 0.85 0.87 1.30 1.24 1.25 0.92 1.11 1.07 0.95 1.03 1.02 0.86 1.47 1.71 1.35 1.50 1.60 1.87
0.71 0.74 1.10 1.15 1.12 1.33 1.13 1.13 1.26 1.34 1.44 1.37 1.36 1.37 1.36 1.42 1.57 1.82 1.92 1.79 1.62 1.39 1.22 1.20 1.18 1.38 1.09 1.48 1.36 1.34 0.94 0.87 1.02 1.01 1.15 1.77 1.29 1.35 1.14 1.00 1.01 1.47 1.89
0.55 0.58 0.55 0.77 1.04 1.13 1.33 1.31 1.25 1.35 1.49 1.65 1.37 1.15 1.09 1.22 1.31 1.30 1.43 1.67 1.86 1.81 1.52 1.39 1.32 1.25 1.42 1.57 1.74 1.56 1.25 1.25 1.11 1.16 1.27 1.46 1.91 1.47 1.55 1.57 1.40 2.24 2.29
0.45 0.38 0.43 0.43 0.36 0.30 0.42 0.84 1.26 1.56 1.62 1.61 1.32 1.11 1.04 1.04 1.11 1.10 1.11 1.09 1.23 1.53 1.76 1.64 1.63 1.66 1.72 1.91 1.83 1.72 1.68 1.68 1.36 1.60 1.46 1.80 1.81 1.36 1.47 1.69 2.16 2.23 1.89
0.29 0.16 0.15 0.10 0.08 0.09 0.11 0.22 0.47 0.83 1.20 1.28 1.24 1.05 0.89 0.76 0.64 0.67 0.81 0.94 0.97 0.94 1.01 1.14 1.34 1.52 1.61 1.78 1.94 1.87 1.87 1.88 1.74 2.07 2.37 2.26 1.77 1.52 1.64 1.87 1.89 1.81 1.77
0.20 0.07 0.03 0.02 0.08 0.11 0.13 0.16 0.28 0.38 0.45 0.48 0.56 0.51 0.48 0.49 0.40 0.41 0.46 0.48 0.58 0.70 0.85 0.95 1.02 1.09 1.12 1.16 1.22 1.26 1.34 1.52 1.66 1.98 2.07 2.00 1.89 1.85 1.96 1.94 1.87 1.85 1.96
0.39 0.16 0.12 0.15 0.18 0.13 0.14 0.22 0.28 0.36 0.47 0.48 0.42 0.39 0.34 0.31 0.30 0.34 0.45 0.42 0.59 0.62 0.67 0.84 0.89 0.95 1.18 1.53 1.50 1.45 1.52 1.62 1.81 1.90 2.04 2.07 2.05 2.03 2.04 1.97 1.92 1.88 1.79
0.45 0.36 0.32 0.27 0.23 0.21 0.32 0.38 0.34 0.28 0.31 0.33 0.35 0.38 0.27 0.21 0.22 0.23 0.37 0.57 0.63 0.59 0.65 0.75 0.78 1.10 1.33 1.42 1.37 1.36 1.39 1.41 1.41 1.36 1.43 1.39 1.32 1.25 1.17 1.12 1.08 1.02 1.02